Regional Weather Roundup
Issued by NWS

Home | Current Version | Previous Version | Graphics & Text | Print | Product List | Glossary Off
Versions: 1 2 3 4 5 6 7 8 9 10 11 12 13 14 15 16 17 18 19 20 21 22 23 24 25 26 27 28 29 30 31 32 33 34 35 36 37 38 39 40 41 42 43 44 45 46 47 48 49 50

710
ASUS43 KDMX 280803
RWRIA

WEATHER ROUNDUP FOR IOWA
NATIONAL WEATHER SERVICE DES MOINES IA
300 AM CDT SAT MAY 28 2016

NOTE: "FAIR" INDICATES FEW OR NO CLOUDS BELOW 12,000 FEET WITH NO
SIGNIFICANT WEATHER AND/OR OBSTRUCTIONS TO VISIBILITY.

* - THESE STATIONS ARE NOT NWS STATIONS...THUS NOT UNDER NWS
QUALITY CONTROL.  THEY ALSO DO NOT REPORT WEATHER SUCH
AS PRECIPITATION OR FOG.

IAZ001>003-012>014-020>022-031>034-043>046-280900-
   NORTHWEST IOWA

CITY           SKY/WX    TMP DP  RH WIND       PRES   REMARKS
CARROLL *      CLOUDY    64  64 100 SE5       29.71F
CHEROKEE *     CLOUDY    63  63  99 CALM      29.72S
DENISON *      CLOUDY    63  61  94 CALM      29.69S
LE MARS *      LGT RAIN  64  61  88 CALM      29.72S
ORANGE CITY *  LGT RAIN  63  61  94 CALM      29.72F
SHELDON *      RAIN      63  61  94 S6        29.72S
SIOUX CITY     CLOUDY    64  61  90 NE6       29.68F
SPENCER        CLOUDY    65  62  90 S10       29.71F
STORM LAKE *   MOCLDY    64  63  94 CALM      29.73S
$$

IAZ055>058-069>071-079>083-090>094-280900-
   SOUTHWEST IOWA

CITY           SKY/WX    TMP DP  RH WIND       PRES   REMARKS
ATLANTIC *     LGT RAIN  63  61  94 S6        29.74R
AUDUBON *        N/A     63  59  88 S3        29.74R
CLARINDA *       N/A     61  61 100 MISG      29.73F
COUNCIL BLFS * CLOUDY    61  59  94 SE6G13    29.71F
CRESTON *      CLOUDY    63  61  94 S10       29.78R
HARLAN  *      CLOUDY    63  61  94 SE9       29.75S
LAMONI         LGT RAIN  63  62  97 NE12      29.73S FOG
RED OAK *      CLOUDY    61  59  94 NE6       29.71F
SHENANDOAH *   CLOUDY    61  61 100 CALM      29.73R
$$

IAZ047>049-059>061-072>074-084-280900-
   CENTRAL IOWA

CITY           SKY/WX    TMP DP  RH WIND       PRES   REMARKS
AMES           LGT RAIN  64  64 100 S3        29.72R FOG
ANKENY *       CLOUDY    64  64 100 S5        29.72S
BOONE *        CLOUDY    64  64 100 CALM      29.72R
CHARITON *     CLOUDY    63  61  94 E7        29.74R
DES MOINES     CLOUDY    64  60  87 S6        29.72F
GRINNELL*      LGT RAIN  63  61  94 S9        29.75S
KNOXVILLE *    CLOUDY    63  61  94 SE5       29.74R
MARSHALLTOWN   CLOUDY    66  65  96 S8        29.72S
NEWTON *       CLOUDY    63  63 100 S5        29.74F
PELLA *        CLOUDY    62  60  94 SE5       29.76S
PERRY *        CLOUDY    64  64 100 SE6       29.72S
$$

IAZ004>006-015-016-023>025-035-036-280900-
   NORTH CENTRAL IOWA

CITY           SKY/WX    TMP DP  RH WIND       PRES   REMARKS
ALGONA *       MOCLDY    64  61  88 SE5       29.73F
CLARION *      MOCLDY    63  63 100 CALM      29.72F
ESTHERVILLE    CLOUDY    64  62  93 S3        29.73F
FORT DODGE *   CLOUDY    64  61  88 CALM      29.72F
MASON CITY     MOCLDY    62  62 100 N5        29.74F
FOREST CITY *  RAIN      63  63 100 CALM      29.74F
WEBSTER CITY * MOCLDY    63  63 100 CALM      29.70F
IOWA FALLS *   DRIZZLE   66  64  94 CALM      29.73F
$$

IAZ007>011-017>019-026>030-037>042-050>054-066-280900-
   NORTHEAST IOWA

CITY           SKY/WX    TMP DP  RH WIND       PRES   REMARKS
CEDAR RAPIDS   LGT RAIN  64  64 100 CALM      29.70F
CHARLES CITY * LGT RAIN  64  64 100 NW6       29.73F
CLINTON *      CLOUDY    69  67  93 S16       29.75S
DECORAH *      CLOUDY    68  68 100 CALM      29.73F
DUBUQUE        LGT RAIN  68  67  96 S16G22    29.73S
MONTICELLO *   LGT RAIN  64  63  94 S3        29.73R
OELWEIN *      CLOUDY    66  66 100 CALM      29.73F
WATERLOO       LGT RAIN  66  64  93 CALM      29.71F VSB 3/4
$$

IAZ064-065-067-068-078-280900-
   EAST CENTRAL IOWA

CITY           SKY/WX    TMP DP  RH WIND       PRES   REMARKS
DAVENPORT      LGT RAIN  67  65  93 SW10      29.75R
IOWA CITY      LGT RAIN  64  62  93 SE6       29.73F
MT. PLEASANT * CLOUDY    66  66 100 CALM      29.75R
MUSCATINE *    CLOUDY    64  63  94 NE3       29.74F
QUAD CITIES    CLOUDY    71  65  81 S14G21    29.74S
$$

IAZ062-063-075>077-085>089-095>099-280900-
   SOUTHEAST IOWA

CITY           SKY/WX    TMP DP  RH WIND       PRES   REMARKS
BURLINGTON     LGT RAIN  67  66  97 S16       29.75R
FAIRFIELD *      N/A    N/A N/A N/A MISG        N/A
FORT MADISON * CLOUDY    66  66 100 S12G20    29.77R
KEOKUK *       CLOUDY    66  66 100 S8        29.76R
OSKALOOSA *    DRIZZLE   63  61  94 CALM      29.77S
OTTUMWA        LGT RAIN  63  63 100 CALM      29.76S FOG
WASHINGTON *   LGT RAIN  63 N/A N/A SE7       29.74S
$$

ABBREVIATIONS USED IN REMARKS
   TC - TEMPERATURES IN CELSIUS
  WCI - WIND CHILL INDEX
   HX - HEAT INDEX
  VSB - VISIBILITY
$$





USA.gov is the U.S. government's official web portal to all federal, state and local government web resources and services.